QPF
0.00 0.00 0.00 0.00 0.00 0.00 0.00 0.01 0.00 0.00 0.01 0.01 0.00 0.00 0.01 0.01 0.01 0.01 0.01 0.02 0.02 0.02 0.02 0.02 0.02 0.01 0.01 0.01 0.01 0.01 0.02 0.02 0.02 0.02 0.03 0.03 0.04 0.04 0.02 0.02 0.03 0.03 0.03 0.04
0.01 0.00 0.01 0.00 0.00 0.01 0.00 0.00 0.00 0.01 0.01 0.00 0.00 0.00 0.00 0.01 0.01 0.01 0.01 0.02 0.02 0.03 0.03 0.03 0.03 0.03 0.01 0.01 0.01 0.01 0.02 0.03 0.02 0.02 0.02 0.03 0.03 0.03 0.03 0.03 0.03 0.03 0.03 0.04
0.01 0.00 0.00 0.00 0.00 0.01 0.00 0.00 0.00 0.00 0.00 0.00 0.00 0.00 0.01 0.01 0.01 0.02 0.02 0.02 0.03 0.04 0.04 0.03 0.03 0.03 0.03 0.03 0.02 0.02 0.03 0.03 0.02 0.02 0.03 0.03 0.03 0.02 0.03 0.03 0.02 0.02 0.02 0.03
0.01 0.01 0.01 0.00 0.00 0.01 0.01 0.00 0.00 0.00 0.00 0.00 0.00 0.01 0.01 0.01 0.02 0.02 0.02 0.03 0.04 0.04 0.03 0.03 0.03 0.04 0.04 0.04 0.05 0.04 0.03 0.03 0.02 0.02 0.03 0.04 0.03 0.02 0.03 0.03 0.02 0.03 0.03 0.03
0.00 0.01 0.01 0.00 0.00 0.01 0.01 0.01 0.01 0.01 0.01 0.01 0.01 0.01 0.01 0.02 0.02 0.02 0.03 0.05 0.05 0.04 0.03 0.02 0.02 0.03 0.03 0.04 0.04 0.03 0.03 0.03 0.03 0.02 0.03 0.04 0.04 0.03 0.03 0.03 0.03 0.03 0.03 0.03
0.00 0.00 0.01 0.00 0.00 0.00 0.01 0.01 0.00 0.01 0.01 0.01 0.01 0.02 0.02 0.01 0.01 0.02 0.04 0.04 0.04 0.03 0.02 0.02 0.02 0.02 0.02 0.03 0.03 0.03 0.03 0.03 0.03 0.03 0.03 0.03 0.03 0.03 0.03 0.03 0.03 0.03 0.02 0.03
0.01 0.01 0.01 0.01 0.00 0.01 0.01 0.01 0.00 0.00 0.01 0.01 0.01 0.01 0.01 0.01 0.01 0.02 0.03 0.03 0.03 0.02 0.02 0.02 0.02 0.02 0.03 0.03 0.03 0.02 0.02 0.03 0.03 0.03 0.03 0.02 0.02 0.02 0.02 0.02 0.01 0.01 0.01 0.02
0.01 0.01 0.01 0.01 0.01 0.02 0.01 0.01 0.01 0.01 0.01 0.01 0.01 0.01 0.01 0.01 0.02 0.02 0.03 0.03 0.02 0.02 0.02 0.02 0.03 0.03 0.03 0.03 0.02 0.02 0.02 0.03 0.03 0.03 0.02 0.02 0.01 0.01 0.01 0.01 0.01 0.01 0.01 0.01
0.02 0.02 0.01 0.01 0.01 0.02 0.01 0.01 0.00 0.01 0.01 0.01 0.01 0.01 0.01 0.01 0.02 0.02 0.02 0.02 0.02 0.03 0.03 0.03 0.03 0.02 0.02 0.02 0.02 0.01 0.01 0.02 0.03 0.03 0.02 0.01 0.01 0.01 0.01 0.01 0.00 0.01 0.01 0.01
0.02 0.02 0.01 0.01 0.01 0.01 0.01 0.00 0.00 0.00 0.00 0.00 0.00 0.00 0.01 0.01 0.01 0.02 0.02 0.02 0.02 0.02 0.03 0.03 0.02 0.02 0.02 0.03 0.02 0.03 0.02 0.03 0.04 0.04 0.02 0.01 0.00 0.00 0.00 0.00 0.00 0.00 0.00 0.01
0.02 0.02 0.01 0.01 0.01 0.01 0.00 0.00 0.00 0.00 0.00 0.00 0.00 0.00 0.01 0.01 0.02 0.02 0.01 0.02 0.02 0.02 0.02 0.02 0.02 0.02 0.03 0.03 0.02 0.03 0.03 0.03 0.02 0.02 0.02 0.01 0.00 0.00 0.01 0.01 0.00 0.00 0.00 0.00
0.01 0.01 0.01 0.01 0.01 0.00 0.00 0.00 0.00 0.00 0.00 0.00 0.01 0.01 0.01 0.01 0.01 0.01 0.01 0.01 0.01 0.01 0.01 0.02 0.03 0.03 0.02 0.01 0.01 0.01 0.02 0.02 0.01 0.01 0.01 0.00 0.00 0.00 0.00 0.01 0.00 0.00 0.00 0.00
0.01 0.01 0.00 0.00 0.00 0.00 0.00 0.00 0.00 0.00 0.00 0.00 0.00 0.01 0.00 0.01 0.01 0.01 0.01 0.01 0.01 0.01 0.01 0.01 0.02 0.02 0.01 0.00 0.00 0.00 0.01 0.01 0.00 0.00 0.00 0.00 0.00 0.00 0.00 0.00 0.00 0.00 0.00 0.00
0.01 0.00 0.00 0.00 0.00 0.00 0.00 0.00 0.00 0.00 0.00 0.00 0.00 0.00 0.00 0.00 0.00 0.01 0.01 0.01 0.01 0.01 0.01 0.00 0.00 0.01 0.00 0.00 0.00 0.00 0.00 0.00 0.00 0.00 0.00 0.00 0.00 0.00 0.00 0.00 0.00 0.00 0.00 0.00
0.00 0.00 0.00 0.00 0.00 0.01 0.00 0.00 0.00 0.00 0.00 0.00 0.00 0.00 0.00 0.00 0.00 0.01 0.00 0.00 0.00 0.00 0.00 0.00 0.00 0.00 0.00 0.00 0.00 0.00 0.00 0.00 0.00 0.00 0.00 0.00 0.00 0.00 0.00 0.00 0.00 0.00 0.00 0.00
0.00 0.00 0.00 0.00 0.01 0.00 0.00 0.00 0.00 0.00 0.00 0.00 0.00 0.00 0.00 0.00 0.00 0.00 0.00 0.00 0.00 0.00 0.00 0.00 0.00 0.00 0.00 0.00 0.00 0.00 0.00 0.00 0.00 0.00 0.00 0.00 0.00 0.00 0.00 0.00 0.00 0.00 0.00 0.00
0.01 0.00 0.00 0.00 0.00 0.00 0.00 0.00 0.00 0.00 0.00 0.00 0.00 0.00 0.00 0.00 0.00 0.00 0.00 0.00 0.00 0.00 0.00 0.00 0.00 0.00 0.00 0.00 0.00 0.00 0.00 0.00 0.00 0.00 0.00 0.00 0.00 0.00 0.00 0.00 0.00 0.00 0.00 0.00
0.00 0.01 0.01 0.00 0.00 0.00 0.00 0.00 0.00 0.00 0.00 0.00 0.00 0.00 0.00 0.00 0.00 0.00 0.00 0.00 0.00 0.00 0.00 0.00 0.00 0.00 0.00 0.00 0.00 0.00 0.00 0.00 0.00 0.00 0.00 0.00 0.00 0.00 0.00 0.00 0.00 0.00 0.00 0.00
0.00 0.00 0.00 0.00 0.00 0.00 0.00 0.00 0.00 0.00 0.00 0.00 0.00 0.00 0.00 0.00 0.00 0.00 0.00 0.00 0.00 0.00 0.00 0.00 0.00 0.00 0.00 0.00 0.00 0.00 0.00 0.00 0.00 0.00 0.00 0.00 0.00 0.00 0.00 0.00 0.00 0.00 0.00 0.00
0.00 0.00 0.00 0.00 0.00 0.00 0.00 0.00 0.00 0.00 0.00 0.00 0.00 0.00 0.00 0.00 0.00 0.00 0.00 0.00 0.00 0.00 0.00 0.00 0.00 0.00 0.00 0.00 0.00 0.00 0.00 0.00 0.00 0.00 0.00 0.00 0.00 0.00 0.00 0.00 0.00 0.00 0.00 0.00
0.00 0.00 0.00 0.00 0.00 0.00 0.00 0.00 0.00 0.00 0.00 0.00 0.00 0.00 0.00 0.00 0.00 0.00 0.00 0.00 0.00 0.00 0.00 0.00 0.00 0.00 0.00 0.00 0.00 0.00 0.00 0.00 0.00 0.00 0.00 0.00 0.00 0.00 0.00 0.00 0.00 0.00 0.00 0.00
0.00 0.00 0.00 0.00 0.00 0.00 0.00 0.00 0.00 0.00 0.00 0.00 0.00 0.00 0.00 0.00 0.00 0.00 0.00 0.00 0.00 0.00 0.00 0.00 0.00 0.00 0.00 0.00 0.00 0.00 0.00 0.00 0.00 0.00 0.00 0.00 0.00 0.00 0.00 0.00 0.00 0.00 0.00 0.00
0.00 0.00 0.00 0.00 0.00 0.00 0.00 0.00 0.00 0.00 0.00 0.00 0.00 0.00 0.00 0.00 0.00 0.00 0.00 0.00 0.00 0.00 0.00 0.00 0.00 0.00 0.00 0.00 0.00 0.00 0.00 0.00 0.00 0.00 0.00 0.00 0.00 0.00 0.00 0.00 0.00 0.00 0.00 0.00
0.00 0.00 0.00 0.00 0.00 0.00 0.00 0.00 0.00 0.00 0.00 0.00 0.00 0.00 0.00 0.00 0.00 0.00 0.00 0.00 0.00 0.00 0.00 0.00 0.00 0.00 0.00 0.00 0.00 0.00 0.00 0.00 0.00 0.00 0.00 0.00 0.00 0.00 0.00 0.00 0.00 0.00 0.00 0.00
0.00 0.00 0.00 0.00 0.00 0.00 0.00 0.00 0.00 0.00 0.00 0.00 0.00 0.00 0.00 0.00 0.00 0.00 0.00 0.00 0.00 0.00 0.00 0.00 0.00 0.00 0.00 0.00 0.00 0.00 0.00 0.00 0.00 0.00 0.00 0.00 0.00 0.00 0.00 0.00 0.00 0.00 0.00 0.00
0.00 0.00 0.00 0.00 0.00 0.00 0.00 0.00 0.00 0.00 0.00 0.00 0.00 0.00 0.00 0.00 0.00 0.00 0.00 0.00 0.00 0.00 0.00 0.00 0.00 0.00 0.00 0.00 0.00 0.00 0.00 0.00 0.00 0.00 0.00 0.00 0.00 0.00 0.00 0.00 0.00 0.00 0.00 0.00
0.00 0.00 0.00 0.00 0.00 0.00 0.00 0.01 0.00 0.00 0.00 0.00 0.00 0.00 0.00 0.00 0.00 0.00 0.00 0.00 0.00 0.00 0.00 0.00 0.00 0.00 0.00 0.00 0.00 0.00 0.00 0.00 0.00 0.00 0.00 0.00 0.00 0.00 0.00 0.00 0.00 0.00 0.00 0.00
MSLP
1012.84 1012.77 1012.78 1012.84 1012.91 1012.93 1012.87 1012.71 1012.43 1012.09 1011.74 1011.45 1011.32 1011.42 1011.80 1012.47 1013.41 1014.57 1015.84 1017.14 1018.36 1019.40 1020.21 1020.76 1021.07 1021.16 1021.08 1020.90 1020.68 1020.45 1020.25 1020.10 1019.99 1019.93 1019.88 1019.86 1019.84 1019.84 1019.85 1019.88 1019.94 1020.04 1020.18 1020.35
1013.12 1012.94 1012.77 1012.62 1012.44 1012.23 1011.97 1011.67 1011.35 1011.04 1010.81 1010.71 1010.81 1011.14 1011.74 1012.58 1013.63 1014.83 1016.10 1017.34 1018.49 1019.46 1020.22 1020.75 1021.07 1021.21 1021.21 1021.11 1020.96 1020.80 1020.66 1020.53 1020.44 1020.37 1020.32 1020.29 1020.28 1020.28 1020.31 1020.36 1020.45 1020.56 1020.71 1020.90
1013.27 1013.02 1012.73 1012.42 1012.07 1011.69 1011.29 1010.91 1010.57 1010.33 1010.22 1010.30 1010.61 1011.15 1011.92 1012.89 1014.02 1015.23 1016.46 1017.63 1018.68 1019.57 1020.26 1020.76 1021.09 1021.26 1021.32 1021.29 1021.22 1021.13 1021.03 1020.94 1020.86 1020.80 1020.76 1020.73 1020.73 1020.75 1020.80 1020.89 1021.00 1021.14 1021.31 1021.50
1013.30 1013.00 1012.65 1012.24 1011.79 1011.32 1010.86 1010.45 1010.14 1009.98 1010.00 1010.23 1010.71 1011.41 1012.30 1013.36 1014.51 1015.71 1016.88 1017.96 1018.91 1019.71 1020.33 1020.80 1021.12 1021.32 1021.42 1021.46 1021.46 1021.42 1021.38 1021.32 1021.27 1021.22 1021.19 1021.18 1021.20 1021.25 1021.33 1021.45 1021.59 1021.77 1021.95 1022.15
1013.22 1012.90 1012.52 1012.08 1011.60 1011.10 1010.65 1010.27 1010.02 1009.94 1010.08 1010.44 1011.04 1011.84 1012.82 1013.91 1015.06 1016.21 1017.30 1018.29 1019.14 1019.85 1020.42 1020.84 1021.16 1021.38 1021.53 1021.62 1021.67 1021.69 1021.69 1021.67 1021.65 1021.63 1021.62 1021.63 1021.67 1021.75 1021.87 1022.02 1022.20 1022.40 1022.60 1022.81
1013.07 1012.74 1012.36 1011.94 1011.48 1011.02 1010.61 1010.30 1010.13 1010.15 1010.38 1010.83 1011.51 1012.38 1013.38 1014.47 1015.58 1016.67 1017.68 1018.58 1019.34 1019.98 1020.48 1020.88 1021.19 1021.43 1021.61 1021.75 1021.85 1021.92 1021.96 1021.98 1021.99 1022.00 1022.01 1022.06 1022.13 1022.24 1022.40 1022.58 1022.79 1023.01 1023.22 1023.43
1012.90 1012.57 1012.20 1011.81 1011.41 1011.03 1010.70 1010.48 1010.40 1010.51 1010.82 1011.34 1012.06 1012.94 1013.94 1014.99 1016.05 1017.06 1017.99 1018.80 1019.50 1020.07 1020.53 1020.91 1021.21 1021.46 1021.67 1021.84 1021.98 1022.09 1022.17 1022.23 1022.28 1022.32 1022.37 1022.44 1022.55 1022.70 1022.88 1023.09 1023.32 1023.56 1023.78 1023.99
1012.76 1012.40 1012.06 1011.72 1011.39 1011.10 1010.88 1010.76 1010.78 1010.97 1011.34 1011.90 1012.64 1013.50 1014.46 1015.46 1016.45 1017.39 1018.24 1018.98 1019.62 1020.14 1020.57 1020.93 1021.23 1021.49 1021.71 1021.91 1022.08 1022.22 1022.34 1022.43 1022.51 1022.59 1022.68 1022.79 1022.93 1023.10 1023.31 1023.54 1023.79 1024.03 1024.26 1024.46
1012.64 1012.26 1011.94 1011.66 1011.42 1011.24 1011.13 1011.12 1011.24 1011.50 1011.92 1012.50 1013.22 1014.06 1014.96 1015.90 1016.82 1017.68 1018.46 1019.15 1019.73 1020.22 1020.63 1020.97 1021.27 1021.53 1021.77 1021.98 1022.17 1022.34 1022.48 1022.61 1022.72 1022.84 1022.96 1023.10 1023.27 1023.47 1023.69 1023.94 1024.19 1024.43 1024.65 1024.84
1012.53 1012.15 1011.86 1011.65 1011.51 1011.45 1011.46 1011.55 1011.76 1012.09 1012.55 1013.13 1013.83 1014.62 1015.47 1016.34 1017.18 1017.98 1018.70 1019.34 1019.88 1020.34 1020.73 1021.06 1021.35 1021.61 1021.85 1022.07 1022.27 1022.45 1022.62 1022.78 1022.93 1023.07 1023.23 1023.40 1023.59 1023.81 1024.04 1024.29 1024.54 1024.77 1024.98 1025.16
1012.39 1012.03 1011.80 1011.68 1011.66 1011.71 1011.85 1012.06 1012.35 1012.74 1013.23 1013.82 1014.49 1015.23 1016.02 1016.81 1017.59 1018.33 1019.00 1019.59 1020.10 1020.53 1020.90 1021.22 1021.50 1021.75 1021.98 1022.20 1022.40 1022.60 1022.78 1022.96 1023.14 1023.32 1023.50 1023.70 1023.91 1024.14 1024.38 1024.62 1024.85 1025.07 1025.27 1025.43
1012.17 1011.87 1011.74 1011.74 1011.84 1012.04 1012.30 1012.63 1013.01 1013.46 1013.98 1014.56 1015.20 1015.90 1016.62 1017.35 1018.06 1018.74 1019.35 1019.91 1020.38 1020.79 1021.14 1021.44 1021.70 1021.94 1022.16 1022.37 1022.57 1022.78 1022.98 1023.17 1023.37 1023.58 1023.79 1024.00 1024.23 1024.46 1024.70 1024.94 1025.16 1025.36 1025.54 1025.69
1011.83 1011.65 1011.64 1011.79 1012.05 1012.39 1012.79 1013.23 1013.71 1014.22 1014.76 1015.34 1015.95 1016.59 1017.26 1017.92 1018.57 1019.19 1019.76 1020.27 1020.71 1021.09 1021.42 1021.69 1021.94 1022.15 1022.36 1022.56 1022.76 1022.96 1023.17 1023.39 1023.60 1023.83 1024.06 1024.30 1024.53 1024.77 1025.01 1025.23 1025.44 1025.63 1025.79 1025.92
1011.38 1011.35 1011.51 1011.82 1012.24 1012.74 1013.28 1013.84 1014.40 1014.96 1015.53 1016.10 1016.69 1017.28 1017.89 1018.49 1019.08 1019.64 1020.16 1020.63 1021.04 1021.39 1021.68 1021.94 1022.16 1022.36 1022.54 1022.73 1022.92 1023.13 1023.34 1023.57 1023.80 1024.04 1024.29 1024.54 1024.78 1025.02 1025.25 1025.47 1025.67 1025.85 1025.99 1026.11
1010.84 1010.98 1011.32 1011.81 1012.41 1013.06 1013.73 1014.39 1015.03 1015.64 1016.22 1016.79 1017.35 1017.91 1018.46 1019.01 1019.54 1020.05 1020.52 1020.94 1021.32 1021.64 1021.91 1022.14 1022.33 1022.51 1022.68 1022.85 1023.04 1023.24 1023.45 1023.68 1023.92 1024.17 1024.43 1024.68 1024.93 1025.17 1025.41 1025.62 1025.81 1025.98 1026.12 1026.22
1010.25 1010.58 1011.10 1011.76 1012.51 1013.30 1014.09 1014.84 1015.54 1016.19 1016.79 1017.35 1017.89 1018.40 1018.91 1019.41 1019.90 1020.36 1020.79 1021.18 1021.52 1021.81 1022.06 1022.26 1022.44 1022.60 1022.75 1022.91 1023.08 1023.27 1023.47 1023.70 1023.94 1024.19 1024.44 1024.70 1024.95 1025.19 1025.42 1025.63 1025.82 1025.99 1026.12 1026.23
1009.70 1010.19 1010.87 1011.67 1012.56 1013.46 1014.33 1015.15 1015.90 1016.57 1017.18 1017.74 1018.25 1018.74 1019.22 1019.68 1020.13 1020.55 1020.95 1021.32 1021.63 1021.91 1022.14 1022.32 1022.49 1022.63 1022.76 1022.90 1023.06 1023.23 1023.42 1023.62 1023.85 1024.09 1024.33 1024.58 1024.82 1025.05 1025.28 1025.48 1025.67 1025.84 1025.98 1026.08
1009.26 1009.87 1010.67 1011.58 1012.55 1013.52 1014.44 1015.30 1016.08 1016.77 1017.38 1017.93 1018.44 1018.91 1019.37 1019.81 1020.24 1020.65 1021.04 1021.38 1021.69 1021.95 1022.17 1022.35 1022.50 1022.62 1022.74 1022.86 1022.99 1023.14 1023.30 1023.48 1023.68 1023.89 1024.11 1024.33 1024.55 1024.77 1024.98 1025.19 1025.37 1025.54 1025.68 1025.78
1008.97 1009.66 1010.53 1011.49 1012.50 1013.50 1014.44 1015.31 1016.09 1016.79 1017.40 1017.96 1018.46 1018.94 1019.40 1019.84 1020.27 1020.68 1021.07 1021.41 1021.72 1021.98 1022.19 1022.36 1022.50 1022.62 1022.72 1022.81 1022.92 1023.03 1023.16 1023.30 1023.46 1023.63 1023.81 1024.00 1024.19 1024.38 1024.57 1024.76 1024.93 1025.09 1025.23 1025.34
1008.85 1009.58 1010.47 1011.43 1012.44 1013.42 1014.35 1015.21 1015.98 1016.68 1017.30 1017.86 1018.38 1018.87 1019.35 1019.81 1020.26 1020.68 1021.08 1021.44 1021.75 1022.02 1022.24 1022.41 1022.54 1022.64 1022.72 1022.79 1022.86 1022.94 1023.03 1023.12 1023.23 1023.36 1023.49 1023.63 1023.78 1023.94 1024.10 1024.26 1024.41 1024.55 1024.68 1024.78
1008.89 1009.62 1010.48 1011.41 1012.38 1013.32 1014.22 1015.04 1015.80 1016.49 1017.11 1017.69 1018.24 1018.76 1019.27 1019.76 1020.23 1020.68 1021.10 1021.48 1021.81 1022.08 1022.30 1022.47 1022.60 1022.69 1022.75 1022.80 1022.84 1022.88 1022.92 1022.97 1023.03 1023.10 1023.18 1023.28 1023.38 1023.49 1023.61 1023.73 1023.85 1023.97 1024.07 1024.16
1009.04 1009.74 1010.55 1011.42 1012.33 1013.21 1014.06 1014.85 1015.59 1016.27 1016.91 1017.51 1018.08 1018.64 1019.18 1019.70 1020.21 1020.69 1021.13 1021.52 1021.86 1022.14 1022.36 1022.53 1022.65 1022.73 1022.78 1022.81 1022.82 1022.83 1022.83 1022.84 1022.86 1022.88 1022.91 1022.95 1023.00 1023.07 1023.14 1023.22 1023.31 1023.39 1023.46 1023.52
1009.24 1009.89 1010.64 1011.45 1012.28 1013.10 1013.90 1014.66 1015.38 1016.06 1016.71 1017.33 1017.93 1018.52 1019.09 1019.65 1020.18 1020.67 1021.13 1021.53 1021.87 1022.15 1022.37 1022.53 1022.65 1022.72 1022.76 1022.77 1022.76 1022.75 1022.73 1022.71 1022.69 1022.67 1022.66 1022.66 1022.67 1022.69 1022.72 1022.75 1022.80 1022.84 1022.87 1022.90
1009.42 1010.03 1010.72 1011.47 1012.23 1013.00 1013.75 1014.48 1015.18 1015.86 1016.52 1017.17 1017.79 1018.40 1018.99 1019.56 1020.10 1020.60 1021.05 1021.44 1021.78 1022.05 1022.26 1022.42 1022.52 1022.59 1022.62 1022.63 1022.62 1022.59 1022.56 1022.53 1022.49 1022.45 1022.41 1022.38 1022.35 1022.34 1022.33 1022.32 1022.32 1022.32 1022.32 1022.30
1009.53 1010.10 1010.74 1011.43 1012.15 1012.87 1013.59 1014.30 1015.00 1015.68 1016.35 1017.00 1017.64 1018.26 1018.85 1019.42 1019.95 1020.43 1020.86 1021.23 1021.54 1021.80 1021.99 1022.14 1022.24 1022.31 1022.35 1022.36 1022.35 1022.34 1022.31 1022.27 1022.23 1022.18 1022.13 1022.08 1022.03 1021.99 1021.94 1021.91 1021.87 1021.83 1021.79 1021.74
1009.51 1010.06 1010.66 1011.31 1011.99 1012.69 1013.39 1014.09 1014.79 1015.47 1016.15 1016.80 1017.44 1018.05 1018.63 1019.18 1019.68 1020.13 1020.53 1020.86 1021.15 1021.38 1021.56 1021.69 1021.80 1021.87 1021.92 1021.95 1021.96 1021.96 1021.95 1021.92 1021.89 1021.85 1021.79 1021.74 1021.67 1021.61 1021.54 1021.47 1021.40 1021.34 1021.26 1021.18
1009.33 1009.86 1010.45 1011.08 1011.74 1012.43 1013.13 1013.83 1014.53 1015.22 1015.89 1016.54 1017.17 1017.76 1018.31 1018.83 1019.28 1019.69 1020.05 1020.35 1020.60 1020.81 1020.97 1021.10 1021.21 1021.29 1021.36 1021.41 1021.45 1021.47 1021.48 1021.48 1021.46 1021.43 1021.38 1021.32 1021.25 1021.17 1021.08 1020.99 1020.90 1020.80 1020.70 1020.60
Thickness
5667 5674 5674 5673 5673 5668 5663 5657 5649 5655 5654 5655 5650 5644 5634 5624 5614 5605 5595 5586 5578 5569 5562 5557 5552 5549 5546 5543 5542 5540 5539 5537 5535 5534 5533 5533 5533 5532 5532 5533 5533 5533 5533 5533
5664 5672 5672 5669 5672 5669 5666 5662 5657 5655 5652 5652 5645 5637 5627 5618 5609 5600 5591 5581 5571 5563 5555 5549 5544 5540 5536 5533 5532 5530 5528 5527 5525 5524 5524 5523 5523 5522 5522 5522 5522 5523 5522 5522
5649 5662 5666 5658 5667 5668 5666 5664 5659 5652 5651 5643 5636 5630 5622 5613 5605 5596 5585 5575 5565 5556 5549 5542 5536 5532 5528 5525 5523 5521 5519 5518 5516 5515 5514 5514 5513 5513 5513 5512 5512 5512 5511 5512
5641 5651 5645 5659 5673 5672 5666 5661 5658 5653 5645 5639 5632 5622 5614 5607 5598 5588 5578 5568 5559 5550 5541 5535 5529 5525 5521 5517 5515 5512 5511 5509 5508 5507 5505 5505 5505 5504 5503 5503 5503 5502 5502 5503
5632 5637 5644 5660 5668 5666 5661 5657 5654 5646 5637 5628 5621 5613 5603 5597 5590 5581 5571 5561 5552 5543 5535 5529 5523 5519 5515 5511 5509 5507 5505 5503 5501 5500 5498 5497 5497 5496 5495 5495 5495 5494 5494 5495
5632 5636 5636 5653 5667 5669 5661 5648 5649 5642 5632 5623 5617 5606 5597 5589 5581 5571 5562 5553 5544 5536 5529 5523 5518 5514 5510 5506 5503 5501 5499 5497 5495 5494 5492 5491 5490 5489 5488 5488 5487 5487 5486 5487
5631 5632 5640 5657 5664 5665 5644 5643 5646 5638 5629 5620 5612 5603 5592 5582 5573 5564 5554 5545 5538 5530 5524 5518 5513 5509 5505 5502 5499 5497 5494 5492 5490 5488 5487 5485 5484 5483 5483 5482 5481 5480 5480 5480
5628 5630 5637 5656 5658 5651 5646 5645 5639 5631 5623 5613 5602 5593 5584 5575 5565 5556 5547 5539 5532 5525 5518 5513 5509 5506 5502 5498 5495 5493 5491 5488 5485 5484 5483 5481 5479 5478 5477 5477 5476 5475 5475 5475
5636 5638 5646 5648 5648 5647 5643 5638 5631 5624 5615 5606 5596 5586 5577 5567 5558 5549 5542 5534 5527 5521 5514 5509 5506 5503 5499 5495 5493 5490 5487 5484 5482 5480 5478 5477 5476 5474 5473 5473 5472 5471 5471 5471
5638 5643 5645 5645 5643 5641 5638 5633 5627 5619 5610 5601 5591 5580 5571 5561 5552 5544 5537 5530 5523 5517 5511 5506 5502 5500 5497 5494 5491 5488 5485 5482 5479 5477 5475 5474 5473 5472 5472 5471 5470 5470 5469 5468
5636 5640 5642 5642 5638 5635 5630 5626 5619 5611 5604 5595 5586 5575 5566 5556 5548 5541 5533 5526 5520 5515 5510 5505 5501 5499 5496 5493 5490 5487 5484 5481 5478 5476 5474 5472 5471 5470 5471 5470 5470 5469 5468 5467
5639 5643 5639 5637 5634 5631 5625 5619 5613 5605 5595 5587 5581 5571 5561 5553 5545 5538 5530 5524 5518 5513 5509 5505 5502 5499 5496 5493 5491 5487 5484 5481 5478 5475 5474 5472 5471 5470 5471 5471 5471 5470 5469 5469
5646 5645 5640 5637 5631 5627 5621 5614 5608 5601 5592 5582 5573 5566 5558 5549 5541 5535 5528 5523 5517 5513 5509 5505 5502 5499 5496 5494 5491 5488 5485 5482 5480 5478 5476 5474 5473 5473 5472 5472 5472 5472 5471 5471
5646 5642 5635 5631 5627 5622 5617 5610 5602 5594 5586 5578 5569 5561 5554 5546 5538 5533 5527 5522 5518 5513 5509 5506 5503 5500 5498 5495 5493 5490 5487 5485 5483 5481 5479 5477 5476 5475 5474 5474 5473 5473 5473 5473
5643 5643 5637 5630 5624 5618 5612 5605 5598 5588 5580 5572 5564 5557 5551 5544 5537 5532 5527 5523 5518 5514 5511 5508 5505 5502 5500 5498 5495 5493 5490 5488 5486 5484 5483 5481 5480 5479 5478 5477 5476 5475 5475 5476
5638 5636 5632 5627 5621 5614 5608 5603 5596 5586 5579 5570 5562 5556 5550 5544 5538 5532 5528 5524 5519 5515 5512 5510 5507 5505 5504 5501 5499 5496 5494 5493 5491 5489 5488 5486 5485 5483 5482 5481 5481 5480 5480 5480
5634 5629 5626 5623 5618 5613 5608 5603 5597 5588 5580 5571 5563 5556 5549 5543 5537 5532 5528 5525 5522 5519 5516 5513 5511 5510 5507 5505 5503 5501 5499 5498 5497 5495 5493 5492 5491 5489 5488 5487 5487 5486 5486 5486
5642 5639 5634 5629 5623 5614 5608 5603 5596 5589 5581 5574 5566 5558 5552 5546 5540 5536 5531 5527 5524 5521 5519 5518 5516 5514 5512 5510 5507 5506 5504 5503 5502 5500 5499 5498 5497 5495 5494 5493 5493 5493 5493 5492
5640 5637 5633 5628 5624 5618 5611 5604 5597 5590 5583 5576 5569 5562 5556 5550 5545 5539 5534 5531 5528 5525 5524 5523 5521 5519 5516 5515 5513 5510 5509 5508 5507 5506 5505 5504 5503 5502 5501 5500 5500 5499 5499 5498
5638 5636 5632 5627 5623 5618 5612 5606 5599 5591 5585 5579 5572 5565 5559 5553 5548 5543 5539 5536 5534 5533 5531 5528 5526 5523 5522 5520 5518 5516 5515 5514 5512 5511 5511 5510 5509 5509 5508 5507 5507 5507 5506 5505
5637 5635 5631 5628 5623 5619 5614 5608 5601 5594 5588 5582 5577 5571 5564 5558 5554 5549 5544 5541 5540 5538 5536 5533 5531 5529 5528 5526 5524 5522 5521 5520 5519 5518 5517 5517 5516 5515 5515 5514 5514 5514 5513 5513
5636 5635 5631 5628 5624 5619 5615 5609 5604 5597 5591 5585 5581 5575 5568 5563 5558 5554 5552 5550 5547 5544 5541 5539 5537 5536 5534 5532 5530 5529 5528 5527 5526 5525 5524 5523 5522 5522 5522 5521 5521 5521 5521 5520
5635 5634 5632 5629 5625 5620 5615 5610 5606 5601 5595 5590 5585 5580 5575 5570 5566 5561 5558 5556 5553 5550 5548 5546 5544 5542 5540 5538 5536 5535 5534 5533 5533 5532 5531 5530 5530 5529 5529 5529 5528 5528 5527 5527
5632 5632 5631 5628 5624 5619 5614 5611 5608 5604 5599 5595 5591 5586 5581 5575 5571 5569 5568 5564 5560 5557 5554 5552 5550 5548 5545 5543 5542 5541 5540 5539 5539 5538 5538 5537 5537 5536 5536 5535 5535 5535 5534 5533
5631 5630 5628 5625 5622 5621 5617 5613 5608 5604 5600 5597 5593 5590 5587 5584 5580 5577 5572 5569 5566 5563 5560 5559 5556 5554 5551 5549 5548 5547 5546 5546 5545 5545 5544 5544 5544 5543 5543 5542 5542 5541 5541 5540
5629 5629 5629 5628 5627 5623 5619 5615 5610 5607 5603 5600 5596 5593 5590 5588 5585 5582 5578 5575 5572 5569 5567 5565 5563 5560 5558 5556 5555 5554 5553 5552 5552 5551 5551 5550 5550 5550 5550 5549 5549 5548 5547 5546
5625 5626 5624 5623 5622 5621 5620 5617 5614 5611 5608 5605 5601 5598 5595 5592 5589 5586 5583 5581 5578 5575 5573 5571 5569 5567 5565 5563 5562 5561 5560 5559 5558 5557 5557 5557 5556 5556 5556 5556 5555 5554 5553 5552